Regional Weather Roundup
Issued by NWS

Home | Current Version | Previous Version | Text Only | Print | Product List | Glossary Off
Versions: 1 2 3 4 5 6 7 8 9 10 11 12 13 14 15 16 17 18 19 20 21 22 23 24 25 26 27 28 29 30 31 32 33 34 35 36 37 38 39 40 41 42 43 44 45 46 47 48 49 50

000
ASUS45 KSLC 290310
RWRUT

UTAH REGIONAL WEATHER ROUNDUP
NATIONAL WEATHER SERVICE SALT LAKE CITY UT
900 PM MDT THU AUG 28 2014

UTZ001>011-023>025-290400-

NORTHERN UTAH

CITY           SKY/WX    TMP DP  RH WIND       PRES   REMARKS
HILL AFB       CLEAR     71  40  31 E8        30.14S
LOGAN          CLEAR     71  51  49 SE6       30.10R
OGDEN          CLEAR     72  42  34 S6        30.11S
PROVO AIRPORT  PTCLDY    70  52  52 E5        30.14R
SALT LAKE CITY PTCLDY    75  41  29 N5        30.09S
VERNAL         CLEAR     65  53  65 W7        30.17R
WENDOVER       CLEAR     81  36  19 S7        30.08S
HEBER CITY     CLEAR     61  50  67 CALM      30.20R
WEST JORDAN    CLEAR     72  52  49 W5        30.13S

$$

UTZ012>022-026-027-290400-

SOUTHERN UTAH

CITY           SKY/WX    TMP DP  RH WIND       PRES   REMARKS
BRYCE CANYON   CLEAR     62  37  39 NW10      30.34R
CEDAR CITY     CLEAR     68  39  34 NE8       30.17R
MILFORD        CLEAR     72  39  30 E3        30.14R
MOAB/CYNLANDS  CLEAR     75  44  33 CALM      30.09R
PRICE          CLEAR     67  42  40 NE7       30.20R
ST GEORGE      CLEAR     90  43  19 W5        29.97R
KANAB            N/A     70  45  40 NE5       30.15R

$$

REGIONAL REPORTS     COLORADO/ARIZONA

CITY           SKY/WX    TMP DP  RH WIND       PRES   REMARKS
CRAIG, CO      CLEAR     58  49  72 CALM      30.21R
GRAND JUNCTION MOCLDY    66  56  70 NE6       30.14R
RIFLE          PTCLDY    62  54  74 SE6       30.19R
MONTROSE       CLEAR     64  50  60 S7        30.24R
CORTEZ         CLEAR     62  46  55 NE6       30.22R
PAGE, AZ       CLEAR     80  41  24 S7        30.08R
GRAND CANYON     N/A    N/A N/A N/A MISG        N/A
KINGMAN        CLEAR     76  39  26 CALM      30.02R
FLAGSTAFF      CLEAR     63  40  42 E6        30.30R

$$

REGIONAL REPORTS    NEVADA/IDAHO/WYOMING

CITY           SKY/WX    TMP DP  RH WIND       PRES   REMARKS
LAS VEGAS, NV  CLEAR     96  35  11 SE6       29.85R HX  91
ELY            CLEAR     60  36  40 S6        30.21R
ELKO           CLEAR     73  34  23 CALM      30.10R
POCATELLO, ID  CLEAR     67  43  41 S8        30.06S
BURLEY         CLEAR     69  52  54 CALM      30.03R
EVANSTON, WY   MOCLDY    61  44  53 W12       30.29R
ROCK SPRINGS   CLEAR     63  43  48 W10       30.22R

$$



USA.gov is the U.S. government's official web portal to all federal, state and local government web resources and services.